Time_in_sec,gx,gy,gz
1326901278.72148728,-0.01136112,0.03220432,-0.99941673
1326901278.77256322,-0.01135610,0.03226094,-0.99941496
1326901278.82551146,-0.01169253,0.03237278,-0.99940747
1326901278.86582851,-0.01172198,0.03231598,-0.99940896
1326901278.92551112,-0.01165583,0.03233923,-0.99940898
1326901278.97351360,-0.01176454,0.03192514,-0.99942102
1326901279.02483726,-0.01169474,0.03186778,-0.99942367
1326901279.07263970,-0.01180027,0.03207362,-0.99941585
1326901279.12549615,-0.01179933,0.03190692,-0.99942119
1326901279.17263150,-0.01179344,0.03170869,-0.99942757
1326901279.22277761,-0.01195139,0.03174828,-0.99942444
1326901279.27351189,-0.01204910,0.03178618,-0.99942206
1326901279.32456970,-0.01207101,0.03197750,-0.99941569
1326901279.36464047,-0.01202964,0.03225599,-0.99940724
1326901279.42518210,-0.01209996,0.03224700,-0.99940669
1326901279.47264838,-0.01215351,0.03189647,-0.99941728
1326901279.52695060,-0.01227630,0.03212736,-0.99940839
1326901279.57365322,-0.01247074,0.03206405,-0.99940801
1326901279.61269355,-0.01242595,0.03209328,-0.99940763
1326901279.67252994,-0.01239188,0.03252170,-0.99939421
1326901279.72454810,-0.01260413,0.03196270,-0.99940959
1326901279.77351236,-0.01256701,0.03202303,-0.99940812
1326901279.82500267,-0.01256258,0.03199471,-0.99940909
1326901279.86557245,-0.01259292,0.03207308,-0.99940619
1326901279.92548680,-0.01252123,0.03212816,-0.99940532
1326901279.97257400,-0.01233651,0.03165599,-0.99942269
1326901280.02463269,-0.01230209,0.03162747,-0.99942402
1326901280.07350230,-0.01247702,0.03153127,-0.99942489
1326901280.12453175,-0.01248486,0.03138220,-0.99942948
1326901280.17351055,-0.01191788,0.03083418,-0.99945346
1326901280.22451329,-0.01181469,0.03078717,-0.99945613
1326901280.27353525,-0.01183532,0.03087710,-0.99945312
1326901280.32603240,-0.01194141,0.03108550,-0.99944539
1326901280.36770940,-0.01211854,0.03126858,-0.99943755
1326901280.42450905,-0.01218430,0.03122195,-0.99943821
1326901280.47350359,-0.01236573,0.03094528,-0.99944458
1326901280.52484751,-0.01251004,0.03117211,-0.99943574
1326901280.57352018,-0.01256432,0.03114543,-0.99943589
1326901280.62551069,-0.01258636,0.03112071,-0.99943638
1326901280.67255855,-0.01266554,0.03070794,-0.99944815
1326901280.72551489,-0.01270166,0.03076382,-0.99944597
1326901280.77359343,-0.01279196,0.03091438,-0.99944018
1326901280.82455611,-0.01263528,0.03107326,-0.99943724
1326901280.86614323,-0.01297663,0.03101083,-0.99943481
1326901280.92453027,-0.01300752,0.03107960,-0.99943227
1326901280.97257161,-0.01271364,0.03092472,-0.99944086
1326901281.01350498,-0.01281766,0.03080685,-0.99944317
1326901281.07353568,-0.01275947,0.03071277,-0.99944681
1326901281.12562537,-0.01274161,0.03063152,-0.99944953
1326901281.17358923,-0.01268176,0.03025168,-0.99946186
1326901281.22172904,-0.01245177,0.03013801,-0.99946819
1326901281.27261043,-0.01245388,0.03029387,-0.99946345
1326901281.32163501,-0.01236105,0.03035658,-0.99946270
1326901281.37351155,-0.01237661,0.03023540,-0.99946618
1326901281.41261721,-0.01249907,0.03045553,-0.99945797
1326901281.47264624,-0.01294698,0.02976819,-0.99947298
1326901281.52178574,-0.01306836,0.03001756,-0.99946394
1326901281.57256126,-0.01319377,0.03018029,-0.99945739
1326901281.61257839,-0.01307502,0.03021637,-0.99945786
1326901281.67445755,-0.01319426,0.03024022,-0.99945557
1326901281.72457457,-0.01287907,0.03022060,-0.99946028
1326901281.77351904,-0.01292814,0.03051632,-0.99945066
1326901281.82549238,-0.01266953,0.03060408,-0.99945129
1326901281.86462855,-0.01264036,0.03081375,-0.99944521
1326901281.92553163,-0.01281780,0.03081878,-0.99944280
1326901281.97255325,-0.01313106,0.03083014,-0.99943838
1326901282.02458048,-0.01318613,0.03083055,-0.99943764
1326901282.07353663,-0.01315627,0.03094958,-0.99943436
1326901282.12470174,-0.01307375,0.03100165,-0.99943383
1326901282.17351007,-0.01295070,0.03131517,-0.99942565
1326901282.22452116,-0.01307279,0.03126157,-0.99942574
1326901282.27263379,-0.01328782,0.03145540,-0.99941683
1326901282.32553840,-0.01345593,0.03140096,-0.99941629
1326901282.36463284,-0.01344740,0.03153685,-0.99941212
1326901282.42452455,-0.01357524,0.03147991,-0.99941219
1326901282.47351766,-0.01380246,0.03153575,-0.99940732
1326901282.52463007,-0.01393711,0.03165770,-0.99940159
1326901282.57253766,-0.01393706,0.03191417,-0.99939344
1326901282.62451148,-0.01398533,0.03204167,-0.99938868
1326901282.67255735,-0.01385760,0.03185786,-0.99939634
1326901282.72833276,-0.01389902,0.03212443,-0.99938723
1326901282.77263784,-0.01378459,0.03226020,-0.99938444
1326901282.82463408,-0.01405323,0.03238479,-0.99937667
1326901282.87350893,-0.01421546,0.03249962,-0.99937065
1326901282.92473340,-0.01440107,0.03242991,-0.99937026
1326901282.97304416,-0.01390951,0.03238799,-0.99937858
1326901283.02505398,-0.01354297,0.03255538,-0.99937817
1326901283.07256866,-0.01382429,0.03255539,-0.99937432
1326901283.12615037,-0.01365329,0.03271252,-0.99937154
1326901283.17290306,-0.01378941,0.03272039,-0.99936942
1326901283.22489047,-0.01346671,0.03197027,-0.99939809
1326901283.27351213,-0.01344135,0.03205645,-0.99939567
1326901283.32465076,-0.01361918,0.03187563,-0.99939905
1326901283.36463690,-0.01365347,0.03213806,-0.99939018
1326901283.42464948,-0.01369720,0.03221802,-0.99938701
1326901283.47264171,-0.01355185,0.03212479,-0.99939199
1326901283.52286148,-0.01353843,0.03218975,-0.99939008
1326901283.57264662,-0.01352654,0.03207981,-0.99939378
1326901283.61255431,-0.01362722,0.03236644,-0.99938317
1326901283.67275453,-0.01391480,0.03246158,-0.99937612
1326901283.72553277,-0.01396763,0.03215569,-0.99938527
1326901283.77350950,-0.01432688,0.03220042,-0.99937874
1326901283.82554436,-0.01445700,0.03217449,-0.99937771
1326901283.86564422,-0.01433109,0.03225795,-0.99937683
1326901283.92551732,-0.01444050,0.03224626,-0.99937563
1326901283.97365642,-0.01461857,0.03181466,-0.99938687
1326901284.02469707,-0.01435273,0.03197269,-0.99938568
1326901284.07354283,-0.01405214,0.03220596,-0.99938247
1326901284.12166572,-0.01419649,0.03209419,-0.99938402
1326901284.17351699,-0.01408727,0.03165877,-0.99939946
1326901284.22459722,-0.01412369,0.03191908,-0.99939066
1326901284.27265477,-0.01398850,0.03195013,-0.99939157
1326901284.32557964,-0.01417342,0.03204396,-0.99938596
1326901284.36676240,-0.01415668,0.03221132,-0.99938082
1326901284.42454648,-0.01409724,0.03222298,-0.99938128
1326901284.47653770,-0.01422668,0.03190468,-0.99938966
1326901284.52560258,-0.01400410,0.03209387,-0.99938675
1326901284.57363701,-0.01394010,0.03221006,-0.99938390
1326901284.62151599,-0.01381574,0.03234081,-0.99938141
1326901284.67259860,-0.01351431,0.03231285,-0.99938643
1326901284.72404242,-0.01334800,0.03258703,-0.99937977
1326901284.77359867,-0.01330451,0.03261636,-0.99937939
1326901284.82148957,-0.01335734,0.03247222,-0.99938338
1326901284.86772013,-0.01312520,0.03252517,-0.99938473
1326901284.92551184,-0.01320659,0.03263532,-0.99938007
1326901284.97351408,-0.01305566,0.03238550,-0.99939018
1326901285.02451658,-0.01291100,0.03231604,-0.99939431
1326901285.07255244,-0.01283888,0.03249537,-0.99938942
1326901285.12665629,-0.01275629,0.03252629,-0.99938947
1326901285.17322922,-0.01291136,0.03190162,-0.99940762
1326901285.22393060,-0.01295497,0.03207392,-0.99940154
1326901285.27352357,-0.01281699,0.03196172,-0.99940691
1326901285.32364988,-0.01285377,0.03203223,-0.99940418
1326901285.36451221,-0.01309235,0.03207526,-0.99939970
1326901285.42518091,-0.01303738,0.03213007,-0.99939866
1326901285.47250605,-0.01294126,0.03201158,-0.99940371
1326901285.52553082,-0.01297384,0.03181035,-0.99940972
1326901285.57251215,-0.01301392,0.03186285,-0.99940752
1326901285.61426115,-0.01303879,0.03197538,-0.99940360
1326901285.67353058,-0.01328529,0.03224133,-0.99939181
1326901285.72456503,-0.01280858,0.03239256,-0.99939315
1326901285.77351213,-0.01267865,0.03241536,-0.99939406
1326901285.82565045,-0.01257639,0.03249888,-0.99939264
1326901285.86566591,-0.01252680,0.03242563,-0.99939565
1326901285.92952013,-0.01247358,0.03243829,-0.99939590
1326901285.97264314,-0.01187907,0.03252458,-0.99940034
1326901286.02465510,-0.01190709,0.03249738,-0.99940089
1326901286.07354689,-0.01187405,0.03264616,-0.99939644
1326901286.12453556,-0.01185998,0.03263457,-0.99939698
1326901286.17351460,-0.01168224,0.03261074,-0.99939985
1326901286.22550273,-0.01169141,0.03275960,-0.99939488
1326901286.27266431,-0.01167503,0.03290250,-0.99939037
1326901286.32743979,-0.01162093,0.03301286,-0.99938736
1326901286.37265348,-0.01168394,0.03296536,-0.99938820
1326901286.42454815,-0.01167027,0.03303892,-0.99938593
1326901286.47355270,-0.01112892,0.03244372,-0.99941160
1326901286.52465773,-0.01120636,0.03254521,-0.99940744
1326901286.57351875,-0.01127612,0.03272901,-0.99940065
1326901286.62455058,-0.01119370,0.03284861,-0.99939765
1326901286.67263174,-0.01072204,0.03237901,-0.99941815
1326901286.72549510,-0.01081317,0.03243682,-0.99941529
1326901286.77262163,-0.01061404,0.03254066,-0.99941405
1326901286.82164884,-0.01048032,0.03272859,-0.99940933
1326901286.86580992,-0.01042915,0.03259511,-0.99941422
1326901286.92565656,-0.01055461,0.03271565,-0.99940897
1326901286.97351122,-0.01026646,0.03172384,-0.99944394
1326901287.02549195,-0.01052387,0.03153155,-0.99944735
1326901287.07267475,-0.01048744,0.03175543,-0.99944065
1326901287.12551475,-0.01038504,0.03166149,-0.99944470
1326901287.17268777,-0.01009440,0.03120855,-0.99946192
1326901287.22165084,-0.00986672,0.03108553,-0.99946803
1326901287.27254272,-0.00980225,0.03128590,-0.99946241
1326901287.32152510,-0.00982187,0.03149389,-0.99945568
1326901287.37353635,-0.00988159,0.03154788,-0.99945339
1326901287.42551804,-0.00998014,0.03158292,-0.99945131
1326901287.47254610,-0.00984916,0.03182066,-0.99944507
1326901287.52154207,-0.00984392,0.03168206,-0.99944952
1326901287.57362580,-0.00983119,0.03153675,-0.99945424
1326901287.61264181,-0.00960675,0.03172260,-0.99945054
1326901287.67355132,-0.00968674,0.03199831,-0.99944098
1326901287.72463465,-0.00922642,0.03106911,-0.99947465
1326901287.77351665,-0.00919985,0.03105014,-0.99947549
1326901287.82453609,-0.00919557,0.03120038,-0.99947085
1326901287.86464643,-0.00929464,0.03105676,-0.99947441
1326901287.92579055,-0.00932314,0.03096265,-0.99947706
1326901287.97305965,-0.00953452,0.03047312,-0.99949011
1326901288.02533793,-0.00932036,0.03054415,-0.99948996
1326901288.07252741,-0.00951768,0.03069189,-0.99948358
1326901288.12452745,-0.00963764,0.03073685,-0.99948105
1326901288.17379808,-0.00968498,0.03009001,-0.99950027
1326901288.22522211,-0.00942545,0.03028066,-0.99949699
1326901288.27262092,-0.00922063,0.03015436,-0.99950272
1326901288.32560611,-0.00908215,0.03036610,-0.99949758
1326901288.37257218,-0.00907169,0.03045355,-0.99949502
1326901288.42555785,-0.00904512,0.03030241,-0.99949985
1326901288.47350717,-0.00877743,0.03032780,-0.99950147
1326901288.52462053,-0.00876222,0.03026492,-0.99950351
1326901288.57351351,-0.00877951,0.03030507,-0.99950214
1326901288.62451506,-0.00852177,0.03046735,-0.99949943
1326901288.67321062,-0.00824226,0.02984869,-0.99952045
1326901288.72549796,-0.00842675,0.02970350,-0.99952323
1326901288.77256727,-0.00843343,0.02989171,-0.99951757
1326901288.82455683,-0.00838928,0.02985595,-0.99951901
1326901288.86552620,-0.00853387,0.02996241,-0.99951460
1326901288.92456222,-0.00856651,0.02996250,-0.99951431
1326901288.97351933,-0.00872694,0.02899167,-0.99954156
1326901289.02467537,-0.00865081,0.02912485,-0.99953835
1326901289.07251406,-0.00882470,0.02902844,-0.99953963
1326901289.12913346,-0.00888577,0.02904507,-0.99953861
1326901289.17366505,-0.00874836,0.02859965,-0.99955266
1326901289.22486448,-0.00892245,0.02861830,-0.99955059
1326901289.27353525,-0.00884917,0.02870696,-0.99954870
1326901289.32462788,-0.00886520,0.02882459,-0.99954517
1326901289.37350798,-0.00902973,0.02901989,-0.99953805
1326901289.42470908,-0.00903063,0.02909180,-0.99953595
1326901289.47253942,-0.00901730,0.02844573,-0.99955467
1326901289.52551818,-0.00911643,0.02860668,-0.99954917
1326901289.57273078,-0.00914686,0.02848437,-0.99955239
1326901289.61366510,-0.00915040,0.02851073,-0.99955160
1326901289.67350101,-0.00937593,0.02866324,-0.99954515
1326901289.72167087,-0.00904575,0.02849320,-0.99955306
1326901289.77353311,-0.00911028,0.02844798,-0.99955376
1326901289.82553458,-0.00913699,0.02834504,-0.99955644
1326901289.86175442,-0.00916027,0.02841242,-0.99955431
1326901289.92576456,-0.00899217,0.02851868,-0.99955281
1326901289.97268105,-0.00834893,0.02829863,-0.99956465
1326901290.02465916,-0.00865975,0.02845078,-0.99955768
1326901290.06551027,-0.00856868,0.02841742,-0.99955942
1326901290.12153983,-0.00865484,0.02824565,-0.99956354
1326901290.17352295,-0.00841013,0.02774415,-0.99957968
1326901290.22153759,-0.00821070,0.02792917,-0.99957618
1326901290.27248454,-0.00826846,0.02808575,-0.99957132
1326901290.32148886,-0.00814712,0.02800480,-0.99957459
1326901290.36551452,-0.00802928,0.02795355,-0.99957698
1326901290.42453623,-0.00797122,0.02787222,-0.99957971
1326901290.47353363,-0.00722303,0.02803998,-0.99958071
1326901290.52163529,-0.00704280,0.02813117,-0.99957943
1326901290.57353449,-0.00710371,0.02810540,-0.99957972
1326901290.62449622,-0.00727690,0.02803952,-0.99958033
1326901290.67337680,-0.00731289,0.02794955,-0.99958259
1326901290.72951674,-0.00662662,0.02781953,-0.99959100
1326901290.77607822,-0.00657504,0.02768738,-0.99959501
1326901290.82549429,-0.00662717,0.02761205,-0.99959675
1326901290.86551523,-0.00646240,0.02760429,-0.99959804
1326901290.92550635,-0.00641583,0.02753334,-0.99960030
1326901290.97350955,-0.00635988,0.02678065,-0.99962110
1326901291.02450776,-0.00618289,0.02668873,-0.99962467
1326901291.07351065,-0.00607707,0.02666859,-0.99962586
1326901291.12757158,-0.00613528,0.02675771,-0.99962312
1326901291.17330289,-0.00540008,0.02661954,-0.99963105
1326901291.22457337,-0.00536261,0.02658994,-0.99963204
1326901291.27352595,-0.00543343,0.02661850,-0.99963090
1326901291.32657433,-0.00556155,0.02680299,-0.99962526
1326901291.37352085,-0.00564398,0.02677528,-0.99962554
1326901291.42451048,-0.00563063,0.02642421,-0.99963496
1326901291.47362423,-0.00557991,0.02619754,-0.99964121
1326901291.52551413,-0.00560866,0.02636549,-0.99963664
1326901291.57365489,-0.00543599,0.02655334,-0.99963262
1326901291.61365795,-0.00533548,0.02679664,-0.99962667
1326901291.67351937,-0.00517460,0.02682020,-0.99962688
1326901291.72483611,-0.00490592,0.02664039,-0.99963304
1326901291.77351260,-0.00482263,0.02672071,-0.99963130
1326901291.82496047,-0.00506878,0.02674231,-0.99962951
1326901291.86195326,-0.00496062,0.02717697,-0.99961833
1326901291.92552805,-0.00492973,0.02717950,-0.99961841
1326901291.96498895,-0.00475706,0.02688773,-0.99962714
1326901292.02510214,-0.00471551,0.02708760,-0.99962194
1326901292.07349944,-0.00456107,0.02725546,-0.99961810
1326901292.12509727,-0.00470193,0.02717708,-0.99961958
1326901292.17350936,-0.00476468,0.02734920,-0.99961459
1326901292.22453380,-0.00479927,0.02743196,-0.99961215
1326901292.27254725,-0.00484460,0.02754124,-0.99960893
1326901292.32846403,-0.00485655,0.02771243,-0.99960414
1326901292.37307167,-0.00464446,0.02772517,-0.99960479
1326901292.42565560,-0.00457282,0.02758500,-0.99960900
1326901292.47351027,-0.00463168,0.02737655,-0.99961446
1326901292.52464795,-0.00479897,0.02729531,-0.99961589
1326901292.57353044,-0.00489932,0.02739269,-0.99961274
1326901292.62455821,-0.00508926,0.02743212,-0.99961071
1326901292.67281699,-0.00494537,0.02731548,-0.99961463
1326901292.72548723,-0.00491839,0.02737861,-0.99961304
1326901292.77270746,-0.00481756,0.02740049,-0.99961293
1326901292.82554054,-0.00484072,0.02749222,-0.99961030
1326901292.86551046,-0.00490020,0.02749905,-0.99960982
1326901292.92453241,-0.00480186,0.02758796,-0.99960785
1326901292.97350788,-0.00430898,0.02723486,-0.99961978
1326901293.02452779,-0.00420337,0.02725186,-0.99961976
1326901293.07264018,-0.00425158,0.02761351,-0.99960963
1326901293.12297797,-0.00415249,0.02759075,-0.99961068
1326901293.17263913,-0.00426596,0.02716987,-0.99962173
1326901293.22463775,-0.00436186,0.02720344,-0.99962040
1326901293.27353525,-0.00451218,0.02725735,-0.99961827
1326901293.32164598,-0.00456396,0.02754295,-0.99961020
1326901293.37350965,-0.00455537,0.02740158,-0.99961413
1326901293.42144394,-0.00481887,0.02776490,-0.99960287
1326901293.47258520,-0.00479571,0.02743591,-0.99961206
1326901293.52549839,-0.00504798,0.02745752,-0.99961023
1326901293.57254744,-0.00509382,0.02772177,-0.99960270
1326901293.61358666,-0.00507277,0.02757880,-0.99960676
1326901293.67752624,-0.00507375,0.02738016,-0.99961222
1326901293.72454095,-0.00490235,0.02748050,-0.99961032
1326901293.77350903,-0.00495786,0.02751251,-0.99960916
1326901293.82550764,-0.00510513,0.02735765,-0.99961267
1326901293.86527562,-0.00506130,0.02744156,-0.99961060
1326901293.92690015,-0.00505731,0.02755033,-0.99960762
1326901293.97262454,-0.00487414,0.02765772,-0.99960557
1326901294.02454495,-0.00496652,0.02755810,-0.99960787
1326901294.07257652,-0.00529454,0.02757012,-0.99960585
1326901294.12462759,-0.00526312,0.02773449,-0.99960147
1326901294.17350936,-0.00551901,0.02812143,-0.99958928
1326901294.22551537,-0.00562372,0.02802003,-0.99959154
1326901294.27263522,-0.00558674,0.02817170,-0.99958749
1326901294.32515287,-0.00562469,0.02816589,-0.99958744
1326901294.36555123,-0.00563740,0.02836012,-0.99958187
1326901294.42463636,-0.00562390,0.02843272,-0.99957989
1326901294.47354746,-0.00540407,0.02853542,-0.99957817
1326901294.52556038,-0.00552943,0.02882291,-0.99956924
1326901294.57351136,-0.00553672,0.02896869,-0.99956499
1326901294.62554336,-0.00571179,0.02896570,-0.99956409
1326901294.67325902,-0.00581756,0.02954061,-0.99954665
1326901294.72591281,-0.00559662,0.02964972,-0.99954468
1326901294.77301717,-0.00574129,0.03002269,-0.99953273
1326901294.82463145,-0.00568914,0.03006863,-0.99953165
1326901294.87253189,-0.00586502,0.03045018,-0.99951908
1326901294.92456913,-0.00566811,0.03058991,-0.99951595
1326901294.97351623,-0.00594997,0.03075228,-0.99950933
1326901295.02490664,-0.00602743,0.03101258,-0.99950082
1326901295.07263350,-0.00621433,0.03110759,-0.99949672
1326901295.12550735,-0.00618350,0.03131480,-0.99949044
1326901295.17299771,-0.00596803,0.03131322,-0.99949180
1326901295.22454858,-0.00615863,0.03159076,-0.99948191
1326901295.27351117,-0.00626189,0.03169458,-0.99947798
1326901295.32452989,-0.00618218,0.03182830,-0.99947423
1326901295.36585307,-0.00597199,0.03199642,-0.99947014
1326901295.42550564,-0.00608649,0.03198723,-0.99946975
1326901295.47255325,-0.00621494,0.03188226,-0.99947231
1326901295.52563834,-0.00607073,0.03209565,-0.99946637
1326901295.57272339,-0.00606288,0.03189585,-0.99947281
1326901295.61366439,-0.00599564,0.03209412,-0.99946687
1326901295.67349982,-0.00593034,0.03210235,-0.99946699
1326901295.72454500,-0.00589992,0.03183193,-0.99947582
1326901295.77349806,-0.00607681,0.03210726,-0.99946596
1326901295.82454300,-0.00611610,0.03232041,-0.99945885
1326901295.86557317,-0.00608219,0.03260360,-0.99944985
1326901295.92722845,-0.00608766,0.03263999,-0.99944863
1326901295.97487926,-0.00634331,0.03184791,-0.99947260
1326901296.02467012,-0.00648376,0.03181990,-0.99947259
1326901296.07352304,-0.00654583,0.03145853,-0.99948362
1326901296.12174320,-0.00650001,0.03143600,-0.99948463
1326901296.17351747,-0.00626753,0.03114136,-0.99949534
1326901296.22564483,-0.00634588,0.03106758,-0.99949714
1326901296.27262807,-0.00642450,0.03118971,-0.99949284
1326901296.32148457,-0.00640852,0.03138981,-0.99948667
1326901296.37349200,-0.00653564,0.03121099,-0.99949145
1326901296.42148709,-0.00651728,0.03119466,-0.99949208
1326901296.47351646,-0.00621788,0.03212054,-0.99946466
1326901296.52476048,-0.00599947,0.03211365,-0.99946622
1326901296.57409358,-0.00589136,0.03214005,-0.99946601
1326901296.62552953,-0.00600351,0.03221855,-0.99946282
1326901296.67331219,-0.00610829,0.03318603,-0.99943053
